Vertical_Velocity
0 -2 -1 1 1 3 1 2 2 0 1 1 -0 -0 -1 -0 -1 1 -0 -1 0 1 1 1 0 -0 -1 -1 -1 -1 -1 -1 -1 -2 -1 0 0 -1 -1 -0 1 -1 -0
1 -0 -0 -1 -2 -2 -2 -2 -1 -1 -0 -1 -1 -1 -0 2 -3 1 0 1 1 1 -0 -1 -1 -0 -1 -2 -1 -0 0 -1 -0 0 -0 -2 -2 -1 -1 -2 -3 -3 -1
1 -1 -1 -2 -1 0 -0 0 0 -1 -1 -1 1 2 1 0 1 -1 2 -0 -1 -1 -0 -1 -1 -1 -0 -0 -0 -1 -2 -1 -0 -1 -1 -1 0 -2 -3 -3 -2 -2 -2
-0 -2 -1 -2 0 -0 0 -1 -1 0 1 1 1 -1 -0 -0 -0 -0 -2 -2 -2 0 -1 -1 0 -2 -1 -1 -2 -2 -3 -2 -1 -1 -1 -3 -3 -1 -3 -3 -2 -3 -3
-3 -1 -2 -0 -1 1 0 0 0 -1 -2 -1 0 0 1 1 -0 -0 -1 -0 -2 -2 0 1 -2 -1 0 -0 -2 -3 -1 -2 -2 -2 -1 -2 -3 -2 -1 -2 -2 -2 -0
-3 4 -1 -2 -1 -0 -1 -2 -1 0 -0 0 0 1 1 0 0 0 -0 -1 -1 0 0 -4 -4 -0 0 -3 -3 -3 -2 -1 -1 -2 -2 -2 -1 -2 -2 -1 -1 -1 -1
-3 -2 -2 -1 -2 -1 -1 -2 -1 0 0 0 -0 1 1 1 1 1 -0 -1 0 1 -2 -2 1 -0 -1 -2 -1 -2 -2 -1 -2 -2 -2 -3 -1 -1 -1 1 0 -0 0
-2 -1 -2 -1 -1 0 -0 -1 -0 -1 0 -1 -1 1 -1 1 1 -0 -0 0 -1 -2 -2 -1 -1 -1 -1 -2 -3 -3 -2 -2 -1 -1 -2 -1 -1 -1 -1 -0 -2 -4 -3
-4 -0 -1 -1 -1 -2 -1 -0 -1 -1 -1 1 -0 -1 2 1 1 1 1 0 -1 -1 -1 -2 -0 1 -1 -2 -3 -2 -1 -1 -1 -1 -1 -2 -1 -2 -3 -4 -2 -1 -1
-5 -1 -1 -1 -0 -1 -1 -0 -0 0 -1 0 0 -1 0 0 0 -0 1 1 1 0 -1 -3 -2 -0 -1 -1 -2 -1 -1 0 1 0 -3 -1 -2 -4 -1 -0 -3 -4 -3
-1 -2 -1 -0 1 0 -2 -2 -1 0 -1 -1 -1 -0 2 0 -0 -2 -1 -0 0 -1 -1 -1 -0 0 -2 -2 -3 0 -1 0 -1 -3 -3 -5 -1 -1 -3 -3 -3 -4 -4
-1 -2 1 -2 -2 -2 -0 -0 -1 -0 -0 -0 0 0 -0 -2 -1 0 -0 1 1 -1 1 -1 -1 -0 -2 -1 -1 1 -0 -1 -3 -3 -2 -2 -3 -2 -2 -2 -3 -4 -2
-2 -3 -1 -3 -2 -1 0 1 0 -2 -2 -1 1 -1 -1 -2 -1 -1 -1 -2 -2 -0 1 0 -1 -2 -0 -2 -2 1 -1 -3 -5 -4 -2 -1 -0 -1 -2 -3 -3 -2 -2
-3 -3 -3 -2 -2 -2 -1 -1 0 1 0 -1 -1 -1 -1 -1 -1 -0 -2 -2 -1 1 1 2 -2 -1 -2 -4 -4 -4 -4 -2 -2 -0 0 1 -1 -2 -3 -4 -3 -1 -2
1 0 1 -1 -2 -0 -1 -2 -0 -1 -0 -0 -1 -1 -1 -3 -2 -2 -2 -2 -1 -2 -1 0 -0 -3 -0 -1 -2 -2 -4 -1 -2 -2 -0 0 -0 -2 -3 -3 -4 -1 -3
-2 0 2 2 -1 1 -0 -0 -1 -3 1 -0 -2 -1 -1 -1 -0 -1 -3 -1 -1 -1 -2 -1 2 -1 -1 -1 -2 -2 -1 -1 1 -3 -2 -2 -2 -2 -3 -2 -5 -3 -3
2 -2 0 -2 -5 -2 -1 -2 1 -0 -3 0 1 1 1 2 1 -0 0 -2 -1 0 -1 -1 1 2 2 -0 3 2 -2 0 -0 -1 -2 -0 -0 1 -1 -4 -1 -2 -2
-1 -3 -1 -1 -1 -0 -3 -1 -1 -3 -1 -4 -3 -1 -2 -1 -0 0 1 -1 -1 -1 -0 -2 -1 -0 -1 -1 -1 -4 -2 -1 -1 -4 -2 -1 -2 -2 -6 -5 -4 -3 -1
-1 -3 -2 -4 -4 -2 -2 -0 -0 -0 3 2 2 -1 -1 -1 -1 -2 -3 -4 -2 -2 -1 -5 -2 -3 -3 -2 -2 -1 -2 -3 1 -6 -4 -2 1 -6 -6 -5 -2 1 -2
2 -1 -3 -2 -2 1 4 0 -1 -1 0 2 4 1 0 1 3 2 0 -1 -2 -1 -1 -5 0 -1 -6 -4 0 -7 -8 -4 -2 -9 3 -2 -2 -4 -6 -4 1 0 4
0 0 -3 -2 1 3 0 -6 -2 2 4 1 0 2 -1 1 -2 -1 -2 -2 -3 0 -3 -3 0 -2 -2 -5 -6 -4 -3 -3 -2 -5 -6 -2 -1 -4 -3 -1 -2 -0 1
-2 0 1 1 5 -3 -3 1 -0 1 2 4 2 3 1 -3 -0 -1 3 -0 2 -1 -4 -0 -1 -5 -0 -2 -2 -4 -1 -8 -14 2 -9 -4 -3 -0 -1 -1 -2 1 1
0 1 2 3 4 7 3 2 4 3 4 7 -3 -1 4 3 -7 0 -5 -1 1 -4 -4 -3 -3 -3 -2 -1 -1 -1 -4 -2 2 1 -7 -6 -4 0 1 4 2 -0 0
-1 3 5 -1 3 -1 5 6 4 8 9 -5 2 -1 2 5 -2 -2 1 1 3 -4 1 -3 -7 1 0 2 0 -1 -2 -3 4 4 -1 -7 -3 1 1 2 0 -2 -3
6 3 4 7 5 4 15 -1 0 21 -1 5 4 -5 -3 4 -1 -4 -6 4 1 -0 0 -6 -2 -0 1 0 -1 -2 -3 -2 -11 -4 -8 2 0 -8 2 0 -4 -3 -2
8 2 -1 12 -13 16 -2 2 -4 -3 -1 10 -8 -1 -7 -1 0 1 3 2 -1 -2 -3 -4 0 1 1 1 0 -0 -0 -1 -2 -13 -1 -5 -4 -1 -10 -3 -0 -4 -2
Height
1577 1578 1580 1581 1581 1583 1583 1584 1584 1585 1586 1586 1587 1588 1588 1589 1588 1589 1589 1589 1589 1589 1589 1589 1588 1587 1586 1584 1583 1581 1579 1577 1574 1571 1569 1566 1563 1560 1557 1554 1551 1548 1545
1576 1578 1579 1580 1581 1582 1583 1584 1585 1585 1586 1587 1588 1588 1589 1589 1589 1590 1590 1590 1590 1590 1590 1590 1589 1588 1587 1585 1583 1580 1578 1576 1573 1571 1568 1565 1562 1559 1556 1553 1550 1546 1543
1576 1577 1579 1579 1581 1582 1583 1584 1585 1586 1587 1588 1588 1589 1589 1590 1591 1590 1591 1591 1591 1591 1591 1591 1590 1588 1587 1585 1583 1580 1578 1575 1572 1570 1567 1564 1561 1558 1555 1551 1547 1543 1539
1577 1578 1579 1579 1581 1582 1583 1584 1585 1586 1587 1587 1588 1589 1590 1590 1591 1591 1591 1592 1592 1593 1592 1591 1590 1588 1587 1585 1583 1580 1578 1575 1572 1569 1565 1562 1559 1556 1552 1548 1544 1540 1536
1577 1578 1578 1579 1580 1581 1582 1584 1585 1586 1586 1588 1588 1589 1590 1591 1591 1592 1592 1593 1593 1593 1592 1591 1590 1588 1586 1585 1583 1580 1577 1574 1571 1568 1564 1561 1557 1554 1550 1546 1541 1537 1532
1577 1579 1579 1579 1580 1581 1582 1583 1584 1585 1586 1587 1588 1589 1590 1591 1592 1592 1593 1593 1593 1593 1591 1590 1589 1587 1586 1584 1582 1579 1576 1573 1570 1566 1562 1559 1554 1551 1546 1542 1537 1533 1527
1575 1577 1577 1579 1580 1580 1581 1582 1583 1584 1585 1587 1588 1589 1591 1592 1592 1593 1593 1593 1593 1592 1591 1591 1589 1587 1585 1583 1581 1578 1574 1571 1568 1564 1560 1556 1552 1547 1543 1538 1533 1528 1523
1574 1575 1576 1578 1579 1580 1581 1581 1582 1583 1584 1585 1587 1589 1591 1593 1593 1593 1593 1593 1592 1591 1591 1590 1588 1586 1584 1582 1579 1576 1573 1569 1565 1561 1557 1553 1549 1544 1539 1534 1528 1523 1518
1573 1574 1575 1577 1578 1579 1579 1580 1581 1581 1583 1584 1585 1587 1589 1589 1590 1592 1592 1592 1591 1591 1590 1588 1587 1585 1583 1580 1578 1574 1571 1567 1563 1558 1554 1550 1545 1539 1534 1529 1522 1517 1512
1571 1572 1574 1575 1577 1577 1578 1579 1579 1580 1580 1582 1584 1585 1585 1586 1588 1590 1590 1590 1591 1590 1589 1587 1585 1584 1581 1578 1576 1572 1568 1564 1560 1555 1550 1546 1540 1535 1529 1523 1517 1513 1508
1569 1570 1572 1574 1575 1576 1577 1577 1578 1578 1579 1580 1581 1582 1583 1584 1585 1586 1587 1588 1588 1587 1587 1585 1583 1582 1579 1577 1573 1569 1564 1561 1557 1552 1546 1541 1535 1530 1524 1518 1514 1509 1505
1566 1568 1570 1572 1573 1575 1576 1576 1576 1577 1578 1579 1580 1580 1581 1583 1583 1584 1584 1586 1587 1585 1585 1583 1581 1579 1576 1573 1570 1566 1562 1558 1553 1548 1542 1537 1531 1525 1519 1514 1510 1506 1500
1561 1564 1567 1568 1571 1573 1574 1575 1575 1576 1577 1578 1579 1579 1580 1581 1581 1582 1583 1583 1584 1583 1582 1580 1578 1575 1573 1570 1566 1563 1559 1555 1549 1544 1539 1534 1528 1522 1516 1511 1506 1501 1495
1557 1561 1563 1565 1567 1569 1572 1573 1574 1574 1575 1576 1577 1578 1578 1579 1580 1580 1580 1580 1580 1580 1579 1577 1575 1573 1570 1566 1563 1560 1556 1551 1546 1541 1536 1530 1524 1518 1512 1507 1503 1496 1489
1553 1556 1558 1560 1563 1565 1568 1570 1572 1573 1573 1574 1575 1576 1576 1577 1577 1577 1577 1577 1576 1576 1575 1573 1573 1570 1567 1564 1560 1556 1552 1548 1543 1538 1533 1527 1521 1515 1509 1504 1499 1493 1486
1549 1551 1554 1556 1558 1561 1564 1566 1567 1569 1571 1571 1572 1573 1573 1574 1574 1574 1574 1574 1574 1573 1573 1572 1570 1567 1564 1560 1557 1553 1549 1545 1539 1534 1529 1523 1517 1512 1506 1501 1496 1490 1484
1543 1545 1550 1552 1554 1556 1559 1561 1563 1564 1566 1568 1569 1569 1570 1570 1570 1571 1571 1571 1571 1570 1569 1568 1567 1564 1561 1557 1554 1550 1546 1541 1535 1530 1525 1520 1514 1509 1504 1499 1493 1487 1481
1536 1539 1543 1545 1548 1550 1552 1555 1556 1559 1560 1562 1564 1566 1566 1566 1567 1567 1567 1567 1567 1566 1565 1564 1563 1560 1558 1553 1549 1546 1542 1538 1532 1527 1521 1517 1512 1507 1503 1497 1492 1487 1480
1527 1530 1534 1537 1541 1543 1546 1548 1551 1552 1554 1555 1556 1559 1561 1562 1562 1563 1563 1564 1564 1563 1561 1561 1558 1555 1553 1550 1546 1542 1538 1534 1528 1524 1519 1515 1510 1505 1501 1496 1493 1488 1482
1518 1521 1526 1530 1533 1536 1539 1542 1544 1546 1549 1550 1551 1552 1555 1556 1558 1559 1559 1559 1559 1559 1558 1557 1555 1552 1549 1546 1542 1537 1532 1530 1525 1520 1517 1513 1508 1504 1499 1494 1491 1488 1484
1509 1514 1518 1521 1524 1528 1531 1534 1537 1539 1541 1544 1546 1547 1550 1552 1553 1553 1554 1554 1555 1555 1554 1553 1552 1549 1546 1542 1538 1534 1529 1524 1521 1515 1514 1510 1506 1502 1498 1495 1492 1489 1484
1500 1505 1509 1512 1516 1520 1522 1525 1529 1532 1534 1537 1538 1541 1543 1546 1549 1550 1550 1549 1549 1549 1550 1550 1547 1547 1543 1539 1536 1532 1525 1520 1514 1514 1510 1509 1504 1500 1495 1493 1491 1489 1484
1494 1498 1500 1505 1508 1511 1514 1517 1520 1524 1527 1530 1533 1535 1539 1540 1543 1545 1546 1546 1545 1545 1547 1546 1545 1543 1540 1536 1532 1528 1524 1522 1517 1513 1508 1506 1502 1498 1494 1493 1490 1488 1484
1488 1490 1492 1497 1501 1504 1506 1510 1513 1514 1518 1521 1527 1530 1532 1536 1537 1542 1542 1541 1542 1541 1542 1541 1542 1540 1537 1534 1531 1527 1522 1519 1517 1513 1508 1504 1501 1495 1493 1492 1490 1487 1485
1479 1483 1485 1486 1490 1493 1493 1498 1503 1505 1508 1515 1520 1524 1531 1533 1535 1534 1538 1538 1538 1538 1538 1539 1539 1537 1535 1532 1528 1525 1521 1516 1512 1509 1508 1504 1499 1494 1491 1490 1490 1487 1484
1472 1474 1477 1479 1486 1486 1490 1491 1498 1503 1506 1511 1516 1519 1524 1532 1532 1532 1533 1534 1533 1536 1535 1536 1535 1533 1531 1529 1526 1522 1518 1515 1512 1509 1509 1505 1499 1494 1488 1487 1487 1484 1483